sat.trackr.live / text

‹ back to catalog

STARLINK-31785

NORAD 60131 · 2024-118U

PAYLOAD ACTIVE UNKNOWN

§ Identity

Operator
Country
US
Launch date
2024-06-24
Launch site
AFWTR
Launch vehicle
Mass (kg)
RCS (m²)

Purposes: comms

External: N2YO · Heavens-Above · Gunter

§ Orbital elements

Epoch: 2026-09-21T00:12:35.039232Z

Period
94.01 min
Inclination
53.1597°
Eccentricity
0.0001639
Mean motion
15.31696366 rev/d
Perigee alt
469.6 km
Apogee alt
471.9 km
Semi-major
6,848.9 km
B*
-1.0088e-5
RAAN
197.8504°
Arg perigee
74.1243°
Mean anomaly
285.9939°
Rev number
12,562

§ Raw data

STARLINK-317851 60131U 24118U   26264.00873888 -.00000678  00000+0 -10088-4 0  99922 60131  53.1597 197.8504 0001639  74.1243 285.9939 15.31696366125624

JSON: /api/v1/satellites/60131 · /tle

For live sub-satellite position, see the globe view (requires WebGL).

§ Visibility from observer

Set your observer location to see the next 7 days of passes ≥ 10°. The values pass through the URL so the page stays shareable.

No JS? Fill the form by hand. The geolocation button needs JavaScript.